Weather Roundup
Issued by NWS

Home | Current Version | Previous Version | Graphics & Text | Print | Product List | Glossary Off
Versions: 1 2 3 4 5 6 7 8 9 10 11 12 13 14 15 16 17 18 19 20 21 22 23 24 25 26 27 28 29 30 31 32 33 34 35 36 37 38 39 40 41 42 43 44 45 46 47 48 49 50

000
NZUS93 KARX 241159
HRRWXR

CURRENT HOURLY OBSERVATIONS ACROSS
MUCH OF THE UPPER MISSISSIPPI VALLEY
NATIONAL WEATHER SERVICE LA CROSSE WI
600 AM CST SAT JAN 24 2015


...SOUTHEAST MINNESOTA...


CITY           SKY/WX    TMP DP  RH WIND       PRES   REMARKS
ROCHESTER      FAIR      27  26  96 W10       29.74F WCI  17
ROCHESTER/MAYO FAIR      31  29  94 W10       29.73F WCI  22
WINONA         CLOUDY    34  32  93 NW7       29.74F WCI  28
AUSTIN         MOCLDY    30  28  93 W6        29.75F WCI  24
ALBERT LEA     PTCLDY    28  28 100 W6        29.76F WCI  22
DODGE CENTER   PTCLDY    27  27 100 W9        29.73F WCI  17
PRESTON        PTCLDY    29  28  97 W8        29.75S WCI  21
OWATONNA       PTCLDY    25  23  93 SW6       29.75F FOG     WCI  18
FARIBAULT      CLEAR     25  23  93 CALM      29.76F FOG
$$

...ELSEWHERE IN MINNESOTA...


CITY           SKY/WX    TMP DP  RH WIND       PRES   REMARKS
MINNEAPOLIS    MOCLDY    30  28  92 SW5       29.74F WCI  25
INTNL FALLS    FLURRIES  32  30  92 W5        29.63F WCI  27
DULUTH         CLOUDY    34  29  82 NW8       29.63S WCI  27
RED WING       CLEAR     25  25 100 CALM      29.74S FOG
REDWOOD FALLS  PTCLDY    32  29  88 W8        29.76F WCI  25
MANKATO        FAIR      30  27  86 W8        29.76F WCI  23
WORTHINGTON    CLEAR     30  25  80 W14       29.79F WCI  20
FAIRMONT       CLEAR     28  25  86 W8        29.77F WCI  20
$$

...SOUTHWEST WISCONSIN...


CITY           SKY/WX    TMP DP  RH WIND       PRES   REMARKS
LA CROSSE      CLOUDY    32  30  92 CALM      29.74F
PRAIRIE DU CHI PTCLDY    23  21  93 CALM      29.77F FOG
BOSCOBEL       CLEAR     26  24  92 SW7       29.75F WCI  18
LONE ROCK      CLOUDY    30  27  88 SW5       29.74F WCI  25
PLATTEVILLE    PTCLDY    25  24  96 W8        29.75S WCI  16
FORT MC COY    CLOUDY    32  29  90 W6        29.73F WCI  26
VIROQUA        CLOUDY    29  29 100 W6        29.71F WCI  23
WIS DELLS      NOT AVBL
$$

...ELSEWHERE IN WISCONSIN...


CITY           SKY/WX    TMP DP  RH WIND       PRES   REMARKS
MILWAUKEE      PTCLDY    32  25  75 W7        29.68S WCI  26
MADISON        CLOUDY    32  27  81 W5        29.71S WCI  27
GREEN BAY      PTCLDY    31  27  85 W9        29.65R WCI  23
EAU CLAIRE     CLOUDY    31  29  92 W7        29.70S WCI  24
BLACK RVR FLS  CLOUDY    30  30  99 SW3       29.71F
MEDFORD        CLOUDY    31  28  91 W6        29.65S WCI  25
WAUSAU         CLOUDY    31  28  89 NW7       29.64R WCI  24
WIS RAPIDS     CLOUDY    33  27  78 W8        29.68F WCI  26
MARSHFIELD     CLOUDY    33  29  85 NW10      29.66S WCI  25
RICE LAKE      CLOUDY    34  31  91 W7        29.71S WCI  28
$$

...NORTHEAST IOWA...


CITY           SKY/WX    TMP DP  RH WIND       PRES   REMARKS
DECORAH        FOG       28  28 100 VRB5      29.75S VSB 3/4 WCI  23
MASON CITY     PTCLDY    28  25  88 W9        29.79F WCI  19
CHARLES CITY   MOCLDY    28  28 100 W8        29.78F WCI  20
OELWEIN        MOCLDY    25  25 100 W9        29.78S WCI  15
$$

...ELSEWHERE IN IOWA...


CITY           SKY/WX    TMP DP  RH WIND       PRES   REMARKS
DES MOINES     PTCLDY    29  26  89 W6        29.86F WCI  23
IOWA CITY      CLEAR     23  22  96 W6        29.83S WCI  16
FORT DODGE     CLEAR     27  23  86 SW3       29.83F
$$

...NORTHERN ILLINOIS...


CITY           SKY/WX    TMP DP  RH WIND       PRES   REMARKS
CHICAGO-OHARE  CLOUDY    30  25  81 W10       29.71S WCI  21
CHICAGO-MIDWAY CLOUDY    32  26  78 W9        29.72S WCI  24
MOLINE         CLEAR     27  24  89 W8        29.81R WCI  19
ROCKFORD       CLOUDY    32  27  81 NW8       29.76R WCI  25
PEORIA         CLOUDY    30  25  81 W6        29.81R WCI  24
$$

NOTE: "FAIR" INDICATES FEW OR NO CLOUDS BELOW 12,000 FEET WITH NO
SIGNIFICANT WEATHER AND/OR OBSTRUCTIONS TO VISIBILITY. WIND
SPEEDS ARE IN MILES-PER-HOUR.



USA.gov is the U.S. government's official web portal to all federal, state and local government web resources and services.